This demonstration page uses our WeatherBlox Daily Observations layout. Learn more.

Left ArrowRight Arrow

39.01783, -85.05884

Hourly Observations for February 18, 2021

Temp ( °F °C ) Dew Point ( °F °C ) Humidity (%) Winds ( mph kmh ) Pressure ( in mb ) Visibility ( mi km ) Precip ( " mm )
12:06 am 00:06 Cloudy with Light Snow 20 -6.7 17 -8.3 89 89 NE 7 11 30.33 1027 1 2 0.01 0.25
12:52 am 00:52 Cloudy with Light Snow 20 -6.7 17 -8.3 89 89 NE 7 11 30.28 1026 1 2 0.03 0.76
1:52 am 01:52 Cloudy with Light Snow 21 -6.1 17 -8.3 85 85 NE 7 11 30.27 1025 1 2 0.01 0.25
2:24 am 02:24 Cloudy with Light Snow 21 -6.1 17 -8.3 85 85 NE 8 13 30.30 1026 2 3 0.01 0.25
2:37 am 02:37 Cloudy with Light Snow 21 -6.1 17 -8.3 85 85 NNE 9 15 30.30 1026 2 3 0.01 0.25
2:52 am 02:52 Cloudy with Light Snow 21 -6.1 17 -8.3 85 85 NNE 7 11 30.25 1024 1 2 0.01 0.25
3:05 am 03:05 Mostly Cloudy with Light Snow 21 -6.1 17 -8.3 85 85 NE 8 13 30.28 1025 1 1 0.00 0.00
3:12 am 03:12 Mostly Cloudy with Light Snow 21 -6.1 18 -7.8 88 88 NE 7 11 30.28 1025 1 2 0.01 0.25
3:52 am 03:52 Mostly Cloudy with Light Snow 21 -6.1 18 -7.8 88 88 NNE 8 13 30.21 1023 1 2 0.02 0.51
4:26 am 04:26 Cloudy with Light Snow 21 -6.1 17 -8.3 85 85 NE 8 13 30.24 1024 2 3 0.00 0.00
4:37 am 04:37 Cloudy with Light Snow 21 -6.1 18 -7.8 88 88 NNE 9 15 30.24 1024 3 4 0.01 0.25
4:52 am 04:52 Cloudy with Light Snow 21 -6.1 18 -7.8 88 88 NE 8 13 30.21 1023 3 4 0.01 0.25
5:29 am 05:29 Cloudy with Light Snow 21 -6.1 17 -8.3 85 85 NNE 10 17 30.23 1024 3 5 0.00 0.00
5:45 am 05:45 Cloudy with Mist and Fog 21 -6.1 17 -8.3 85 85 NNE 9 15 30.24 1024 5 8 0.00 0.00
5:52 am 05:52 Cloudy with Light Snow 21 -6.1 17 -8.3 85 85 NNE 12 19 30.20 1023 3 5 0.00 0.00
5:56 am 05:56 Cloudy with Light Snow 21 -6.1 17 -8.3 85 85 NNE 12 19 30.24 1024 3 4 0.00 0.00
6:38 am 06:38 Cloudy with Light Snow 22 -5.6 17 -8.3 82 82 NNE 10 17 30.23 1024 4 6 0.00 0.00
6:52 am 06:52 Cloudy with Mist and Fog 22 -5.6 18 -7.8 85 85 NNE 10 17 30.18 1022 4 6 0.00 0.00
7:52 am 07:52 Cloudy with Light Snow 22 -5.6 17 -8.3 82 82 NNE 10 17 30.17 1022 3 5 0.00 0.00
8:20 am 08:20 Cloudy with Light Snow 22 -5.6 17 -8.3 82 82 NE 10 17 30.24 1024 3 4 0.00 0.00
8:52 am 08:52 Cloudy with Light Snow 22 -5.6 18 -7.8 85 85 NNE 10 17 30.20 1023 4 6 0.00 0.00
9:39 am 09:39 Cloudy with Light Snow 23 -5 18 -7.8 81 81 NNE 6 9 30.25 1024 3 4 0.00 0.00
9:52 am 09:52 Cloudy with Light Snow 23 -5 18 -7.8 81 81 N 7 11 30.24 1024 2 3 0.00 0.00
10:52 am 10:52 Cloudy with Light Snow 23 -5 18 -7.8 81 81 NNW 7 11 30.21 1023 2 3 0.01 0.25
11:33 am 11:33 Cloudy with Light Snow 24 -4.4 19 -7.2 81 81 NNW 6 9 30.27 1025 2 3 0.00 0.00
11:52 am 11:52 Cloudy with Light Snow 24 -4.4 19 -7.2 81 81 N 5 7 30.23 1024 3 4 0.01 0.25
12:01 pm 12:01 Cloudy with Haze 25 -3.9 19 -7.2 78 78 N 6 9 30.24 1024 4 6 0.00 0.00
12:25 pm 12:25 Cloudy with Light Snow 25 -3.9 19 -7.2 78 78 N 6 9 30.23 1024 3 4 0.00 0.00
12:38 pm 12:38 Cloudy with Light Snow 25 -3.9 20 -6.7 81 81 NNW 3 6 30.25 1024 3 5 0.00 0.00
12:52 pm 12:52 Cloudy with Haze 26 -3.3 20 -6.7 78 78 NNW 3 6 30.19 1022 4 6 0.00 0.00
1:52 pm 13:52 Cloudy with Haze 27 -2.8 20 -6.7 75 75 NNW 5 7 30.19 1022 5 8 0.00 0.00
2:52 pm 14:52 Cloudy with Haze 28 -2.2 20 -6.7 72 72 NW 7 11 30.18 1022 6 10 0.00 0.00
3:52 pm 15:52 Cloudy with Haze 28 -2.2 20 -6.7 72 72 NW 9 15 30.19 1022 6 10 0.00 0.00
4:31 pm 16:31 Cloudy with Haze 28 -2.2 20 -6.7 72 72 NW 8 13 30.22 1024 6 10 0.00 0.00
4:52 pm 16:52 Cloudy 28 -2.2 20 -6.7 72 72 NNW 7 11 30.20 1023 7 11 0.00 0.00
5:52 pm 17:52 Cloudy 27 -2.8 19 -7.2 72 72 NNW 10 17 30.22 1023 8 13 0.00 0.00
6:52 pm 18:52 Cloudy 27 -2.8 20 -6.7 75 75 N 9 15 30.24 1024 7 11 0.00 0.00
7:52 pm 19:52 Cloudy with Light Snow 26 -3.3 18 -7.8 71 71 NNW 13 20 30.24 1024 6 10 0.00 0.00
8:52 pm 20:52 Cloudy with Haze 25 -3.9 18 -7.8 75 75 NNW 13 20 30.25 1024 5 8 0.00 0.00
9:07 pm 21:07 Cloudy with Haze 25 -3.9 17 -8.3 72 72 NNW 12 19 30.29 1026 5 8 0.00 0.00
9:37 pm 21:37 Cloudy with Haze 25 -3.9 17 -8.3 72 72 NNW 10 17 30.29 1026 5 8 0.00 0.00
9:52 pm 21:52 Cloudy with Haze 25 -3.9 18 -7.8 75 75 NNW 8 13 30.26 1025 6 10 0.00 0.00
10:23 pm 22:23 Cloudy with Haze 24 -4.4 17 -8.3 75 75 NNW 9 15 30.30 1026 6 10 0.00 0.00
10:52 pm 22:52 Cloudy with Haze 24 -4.4 17 -8.3 75 75 NW 9 15 30.27 1025 6 10 0.00 0.00
11:52 pm 23:52 Cloudy with Haze 24 -4.4 17 -8.3 75 75 NW 8 13 30.26 1025 6 10 0.00 0.00

Powered by AerisWeather